| time (UTC) | temp C | wind direction | speed KPH | gust KPH | rain 1hr cm | rain 24hr cm | rain mn cm | humidity % | barometer mb |
| 20260903085430 | 17 | 320 | 0.0 | 0.0 | 0.00 | 0.05 | 0.00 | 76 | 1026.6 |
| 20260903084929 | 17 | 320 | 0.0 | 0.0 | 0.00 | 0.05 | 0.00 | 69 | 1026.5 |
| 20260903084430 | 17 | 320 | 0.0 | 0.0 | 0.00 | 0.05 | 0.00 | 77 | 1026.7 |
| 20260903083929 | 17 | 320 | 0.0 | 3.2 | 0.00 | 0.05 | 0.00 | 69 | 1026.6 |
| 20260903083423 | 17 | 320 | 1.6 | 3.2 | 0.00 | 0.05 | 0.00 | 72 | 1026.6 |
| 20260903082923 | 17 | 320 | 0.0 | 3.2 | 0.00 | 0.05 | 0.00 | 72 | 1026.6 |
| 20260903082422 | 17 | 320 | 0.0 | 3.2 | 0.00 | 0.05 | 0.00 | 71 | 1026.6 |
| 20260903081920 | 17 | 320 | 1.6 | 4.8 | 0.00 | 0.05 | 0.00 | 73 | 1026.6 |
| 20260903081646 | 17 | 320 | 1.6 | 4.8 | 0.00 | 0.05 | 0.00 | 75 | 1026.6 |
| 20260903080916 | 16 | 320 | 1.6 | 4.8 | 0.00 | 0.05 | 0.00 | 78 | 1026.5 |
| 20260903080424 | 16 | 320 | 0.0 | 3.2 | 0.00 | 0.05 | 0.00 | 75 | 1026.5 |
| 20260903075915 | 16 | 320 | 0.0 | 3.2 | 0.00 | 0.05 | 0.00 | 75 | 1026.6 |
| 20260903075416 | 16 | 320 | 1.6 | 6.4 | 0.00 | 0.05 | 0.00 | 78 | 1026.6 |
| 20260903074916 | 15 | 320 | 1.6 | 6.4 | 0.00 | 0.05 | 0.00 | 81 | 1026.6 |
| 20260903074414 | 15 | 288 | 1.6 | 4.8 | 0.00 | 0.05 | 0.00 | 85 | 1026.6 |
| 20260903073913 | 15 | 288 | 0.0 | 3.2 | 0.00 | 0.05 | 0.00 | 83 | 1026.6 |
| 20260903073413 | 14 | 288 | 0.0 | 3.2 | 0.00 | 0.05 | 0.00 | 86 | 1026.6 |
| 20260903072910 | 14 | 237 | 0.0 | 0.0 | 0.00 | 0.05 | 0.00 | 88 | 1026.6 |
| 20260903072409 | 13 | 237 | 0.0 | 0.0 | 0.00 | 0.05 | 0.00 | 91 | 1026.6 |
| 20260903071909 | 13 | 237 | 0.0 | 0.0 | 0.00 | 0.05 | 0.00 | 94 | 1026.6 |
| 20260903071408 | 12 | 237 | 0.0 | 0.0 | 0.00 | 0.05 | 0.00 | 94 | 1026.6 |
| 20260903070908 | 12 | 237 | 0.0 | 0.0 | 0.00 | 0.05 | 0.00 | 95 | 1026.6 |
| 20260903070415 | 12 | 237 | 0.0 | 0.0 | 0.00 | 0.05 | 0.00 | 96 | 1026.5 |
| 20260903065903 | 12 | 237 | 0.0 | 0.0 | 0.00 | 0.05 | 0.00 | 97 | 1026.5 |
| 20260903065402 | 12 | 237 | 0.0 | 0.0 | 0.00 | 0.05 | 0.00 | 98 | 1026.5 |
| 20260903065122 | 11 | 237 | 0.0 | 0.0 | 0.00 | 0.05 | 0.00 | 98 | 1026.5 |
| 20260903064353 | 11 | 237 | 0.0 | 0.0 | 0.00 | 0.05 | 0.00 | 99 | 1026.6 |
| 20260903063846 | 10 | 237 | 0.0 | 0.0 | 0.00 | 0.05 | 0.00 | 99 | 1026.6 |
| 20260903063614 | 10 | 237 | 0.0 | 0.0 | 0.00 | 0.05 | 0.00 | 98 | 1026.6 |
| 20260903062844 | 10 | 237 | 0.0 | 0.0 | 0.00 | 0.05 | 0.00 | 98 | 1026.6 |
| 20260903062342 | 10 | 237 | 0.0 | 0.0 | 0.00 | 0.05 | 0.00 | 98 | 1026.6 |
| 20260903061839 | 10 | 237 | 0.0 | 0.0 | 0.00 | 0.05 | 0.00 | 98 | 1026.6 |
| 20260903061337 | 10 | 237 | 0.0 | 0.0 | 0.00 | 0.05 | 0.00 | 98 | 1026.6 |
| 20260903060833 | 10 | 237 | 0.0 | 0.0 | 0.00 | 0.05 | 0.00 | 98 | 1026.6 |
| 20260903060335 | 10 | 237 | 0.0 | 0.0 | 0.00 | 0.05 | 0.00 | 98 | 1026.6 |
| 20260903055831 | 10 | 237 | 0.0 | 0.0 | 0.00 | 0.05 | 0.00 | 98 | 1026.6 |
| 20260903055331 | 10 | 237 | 0.0 | 0.0 | 0.00 | 0.05 | 0.00 | 98 | 1026.5 |
| 20260903054829 | 10 | 237 | 0.0 | 0.0 | 0.00 | 0.05 | 0.00 | 98 | 1026.5 |
| 20260903054606 | 10 | 237 | 0.0 | 0.0 | 0.00 | 0.05 | 0.00 | 98 | 1026.6 |
| 20260903053829 | 10 | 237 | 0.0 | 0.0 | 0.00 | 0.05 | 0.00 | 98 | 1026.5 |
| 20260903053607 | 10 | 237 | 0.0 | 0.0 | 0.00 | 0.05 | 0.00 | 98 | 1026.5 |
| 20260903052831 | 10 | 237 | 0.0 | 0.0 | 0.00 | 0.05 | 0.00 | 98 | 1026.5 |
| 20260903052329 | 10 | 237 | 0.0 | 0.0 | 0.00 | 0.05 | 0.00 | 98 | 1026.4 |
| 20260903051830 | 10 | 237 | 0.0 | 0.0 | 0.00 | 0.05 | 0.00 | 98 | 1026.4 |
| 20260903051329 | 10 | 237 | 0.0 | 0.0 | 0.00 | 0.05 | 0.00 | 98 | 1026.3 |
| 20260903050829 | 9 | 237 | 0.0 | 0.0 | 0.00 | 0.05 | 0.00 | 98 | 1026.3 |
| 20260903050557 | 10 | 237 | 0.0 | 0.0 | 0.00 | 0.05 | 0.00 | 98 | 1026.3 |
| 20260903050122 | 10 | 237 | 0.0 | 0.0 | 0.00 | 0.05 | 0.00 | 98 | 1026.4 |
| 20260903045322 | 10 | 237 | 0.0 | 0.0 | 0.00 | 0.05 | 0.00 | 98 | 1026.3 |
| 20260903044815 | 9 | 237 | 0.0 | 0.0 | 0.00 | 0.05 | 0.00 | 98 | 1026.2 |
| 20260903044309 | 9 | 237 | 0.0 | 0.0 | 0.00 | 0.05 | 0.00 | 98 | 1026.2 |
| 20260903043809 | 9 | 237 | 0.0 | 0.0 | 0.00 | 0.05 | 0.00 | 97 | 1026.2 |
| 20260903043530 | 10 | 237 | 0.0 | 0.0 | 0.00 | 0.05 | 0.00 | 98 | 1026.2 |
| 20260903042810 | 10 | 237 | 0.0 | 0.0 | 0.00 | 0.05 | 0.00 | 98 | 1026.0 |
| 20260903042306 | 10 | 237 | 0.0 | 0.0 | 0.00 | 0.05 | 0.00 | 98 | 1026.0 |
| 20260903041801 | 10 | 237 | 0.0 | 0.0 | 0.00 | 0.05 | 0.00 | 98 | 1026.0 |
| 20260903041301 | 10 | 237 | 0.0 | 0.0 | 0.00 | 0.05 | 0.00 | 98 | 1026.2 |
| 20260903040800 | 10 | 237 | 0.0 | 0.0 | 0.00 | 0.05 | 0.00 | 98 | 1026.2 |
| 20260903040259 | 10 | 237 | 0.0 | 0.0 | 0.00 | 0.05 | 0.00 | 98 | 1026.2 |
| 20260903035759 | 10 | 237 | 0.0 | 0.0 | 0.00 | 0.05 | 0.00 | 98 | 1026.3 |
| 20260903035257 | 10 | 237 | 0.0 | 0.0 | 0.00 | 0.05 | 0.00 | 98 | 1026.2 |
| 20260903034757 | 10 | 237 | 0.0 | 0.0 | 0.00 | 0.05 | 0.00 | 98 | 1026.2 |
| 20260903034257 | 10 | 237 | 0.0 | 0.0 | 0.00 | 0.05 | 0.00 | 98 | 1026.3 |
| 20260903033757 | 10 | 237 | 0.0 | 0.0 | 0.00 | 0.05 | 0.00 | 98 | 1026.2 |
| 20260903033257 | 10 | 237 | 0.0 | 0.0 | 0.00 | 0.05 | 0.00 | 98 | 1026.3 |
| 20260903032756 | 10 | 237 | 0.0 | 0.0 | 0.00 | 0.05 | 0.00 | 98 | 1026.3 |
| 20260903032255 | 10 | 237 | 0.0 | 0.0 | 0.00 | 0.05 | 0.00 | 98 | 1026.3 |
| 20260903031755 | 10 | 237 | 0.0 | 0.0 | 0.00 | 0.05 | 0.00 | 98 | 1026.2 |
| 20260903031253 | 10 | 237 | 0.0 | 0.0 | 0.00 | 0.05 | 0.00 | 98 | 1026.2 |
| 20260903030753 | 10 | 237 | 0.0 | 0.0 | 0.00 | 0.05 | 0.00 | 98 | 1026.2 |
| 20260903030252 | 10 | 237 | 0.0 | 0.0 | 0.00 | 0.05 | 0.00 | 98 | 1026.2 |
| 20260903025753 | 10 | 237 | 0.0 | 0.0 | 0.00 | 0.05 | 0.00 | 98 | 1026.3 |
| 20260903025253 | 11 | 237 | 0.0 | 0.0 | 0.00 | 0.05 | 0.00 | 98 | 1026.2 |
| 20260903025021 | 10 | 237 | 0.0 | 0.0 | 0.00 | 0.05 | 0.00 | 98 | 1026.3 |
| 20260903024253 | 11 | 237 | 0.0 | 0.0 | 0.00 | 0.05 | 0.00 | 97 | 1026.3 |
| 20260903023753 | 11 | 237 | 0.0 | 0.0 | 0.00 | 0.05 | 0.00 | 98 | 1026.3 |
| 20260903023252 | 11 | 237 | 0.0 | 0.0 | 0.00 | 0.05 | 0.00 | 98 | 1026.2 |
| 20260903023016 | 11 | 237 | 0.0 | 0.0 | 0.00 | 0.05 | 0.00 | 98 | 1026.2 |
| 20260903022750 | 11 | 237 | 0.0 | 0.0 | 0.00 | 0.05 | 0.00 | 97 | 1026.0 |
| 20260903021753 | 11 | 237 | 0.0 | 0.0 | 0.00 | 0.05 | 0.00 | 98 | 1026.0 |
| 20260903021253 | 11 | 237 | 0.0 | 0.0 | 0.00 | 0.05 | 0.00 | 98 | 1026.0 |
| 20260903020752 | 11 | 237 | 0.0 | 0.0 | 0.00 | 0.05 | 0.00 | 98 | 1026.3 |
| 20260903020518 | 11 | 237 | 0.0 | 0.0 | 0.00 | 0.05 | 0.00 | 98 | 1026.2 |
| 20260903015750 | 12 | 237 | 0.0 | 0.0 | 0.00 | 0.05 | 0.00 | 98 | 1026.2 |
| 20260903015246 | 12 | 237 | 0.0 | 0.0 | 0.00 | 0.05 | 0.00 | 98 | 1026.0 |
| 20260903014746 | 12 | 237 | 0.0 | 0.0 | 0.00 | 0.05 | 0.00 | 98 | 1026.0 |
| 20260903014247 | 12 | 237 | 0.0 | 0.0 | 0.00 | 0.05 | 0.00 | 98 | 1026.0 |
| 20260903013745 | 12 | 237 | 0.0 | 0.0 | 0.00 | 0.05 | 0.00 | 98 | 1026.2 |
| 20260903013243 | 12 | 237 | 0.0 | 0.0 | 0.00 | 0.05 | 0.00 | 98 | 1026.3 |
| 20260903012741 | 12 | 237 | 0.0 | 0.0 | 0.00 | 0.05 | 0.00 | 98 | 1026.2 |
| 20260903012238 | 12 | 237 | 0.0 | 0.0 | 0.00 | 0.05 | 0.00 | 98 | 1026.2 |
| 20260903011737 | 12 | 330 | 0.0 | 0.0 | 0.00 | 0.05 | 0.00 | 98 | 1026.0 |
| 20260903011236 | 12 | 330 | 0.0 | 0.0 | 0.00 | 0.05 | 0.00 | 98 | 1025.9 |
| 20260903010737 | 12 | 330 | 0.0 | 0.0 | 0.00 | 0.05 | 0.00 | 98 | 1026.2 |
| 20260903010234 | 12 | 330 | 0.0 | 0.0 | 0.00 | 0.05 | 0.00 | 98 | 1026.2 |
| 20260903005734 | 12 | 330 | 0.0 | 0.0 | 0.00 | 0.05 | 0.00 | 98 | 1026.2 |
| 20260903005500 | 12 | 330 | 0.0 | 0.0 | 0.00 | 0.05 | 0.00 | 98 | 1026.0 |
| 20260903004734 | 12 | 330 | 0.0 | 0.0 | 0.00 | 0.05 | 0.00 | 98 | 1026.2 |
| 20260903004234 | 12 | 330 | 0.0 | 0.0 | 0.00 | 0.05 | 0.00 | 98 | 1026.2 |
| 20260903003953 | 12 | 330 | 0.0 | 0.0 | 0.00 | 0.05 | 0.00 | 98 | 1026.2 |
| 20260903003450 | 12 | 330 | 0.0 | 0.0 | 0.00 | 0.05 | 0.00 | 98 | 1026.2 |
| 20260903002729 | 12 | 330 | 0.0 | 0.0 | 0.00 | 0.05 | 0.00 | 98 | 1026.0 |
| 20260903002228 | 12 | 330 | 0.0 | 0.0 | 0.00 | 0.05 | 0.00 | 98 | 1026.0 |
| 20260903001729 | 12 | 330 | 0.0 | 0.0 | 0.00 | 0.05 | 0.00 | 98 | 1026.0 |
| 20260903001451 | 12 | 330 | 0.0 | 0.0 | 0.00 | 0.05 | 0.00 | 97 | 1026.0 |
| 20260903000727 | 12 | 330 | 0.0 | 0.0 | 0.00 | 0.05 | 0.00 | 97 | 1025.9 |
| 20260903000220 | 12 | 330 | 0.0 | 0.0 | 0.00 | 0.05 | 0.00 | 98 | 1026.0 |
| 20260902235713 | 12 | 330 | 0.0 | 0.0 | 0.00 | 0.05 | 0.00 | 97 | 1026.0 |
| 20260902235208 | 12 | 330 | 0.0 | 0.0 | 0.00 | 0.05 | 0.00 | 98 | 1026.2 |
| 20260902234702 | 12 | 330 | 0.0 | 0.0 | 0.00 | 0.05 | 0.00 | 97 | 1025.9 |
| 20260902234201 | 12 | 330 | 0.0 | 0.0 | 0.00 | 0.05 | 0.00 | 97 | 1026.0 |
| 20260902233702 | 12 | 330 | 0.0 | 0.0 | 0.00 | 0.05 | 0.00 | 97 | 1026.0 |
| 20260902233201 | 12 | 330 | 0.0 | 0.0 | 0.00 | 0.05 | 0.00 | 97 | 1025.9 |
| 20260902232926 | 12 | 330 | 0.0 | 0.0 | 0.00 | 0.05 | 0.00 | 97 | 1026.0 |
| 20260902232201 | 12 | 330 | 0.0 | 0.0 | 0.00 | 0.05 | 0.00 | 97 | 1026.0 |
| 20260902231704 | 12 | 330 | 0.0 | 0.0 | 0.00 | 0.05 | 0.00 | 97 | 1026.0 |
| 20260902231203 | 12 | 330 | 0.0 | 0.0 | 0.00 | 0.05 | 0.00 | 97 | 1026.2 |
| 20260902230700 | 12 | 330 | 0.0 | 0.0 | 0.00 | 0.05 | 0.00 | 97 | 1026.3 |
| 20260902230158 | 12 | 330 | 0.0 | 0.0 | 0.00 | 0.05 | 0.00 | 97 | 1026.2 |
| 20260902225656 | 12 | 330 | 0.0 | 0.0 | 0.00 | 0.05 | 0.00 | 97 | 1026.2 |
| 20260902225154 | 12 | 330 | 0.0 | 0.0 | 0.00 | 0.05 | 0.00 | 97 | 1026.2 |
| 20260902224652 | 12 | 330 | 0.0 | 1.6 | 0.00 | 0.05 | 0.00 | 97 | 1026.0 |
| 20260902224438 | 12 | 330 | 1.6 | 4.8 | 0.00 | 0.05 | 0.00 | 96 | 1026.0 |
| 20260902224150 | 12 | 330 | 1.6 | 3.2 | 0.00 | 0.05 | 0.00 | 96 | 1026.2 |
| 20260902223148 | 12 | 330 | 0.0 | 4.8 | 0.00 | 0.05 | 0.00 | 96 | 1026.0 |
| 20260902222650 | 12 | 330 | 0.0 | 1.6 | 0.00 | 0.05 | 0.00 | 96 | 1026.0 |
| 20260902222146 | 12 | 330 | 1.6 | 4.8 | 0.00 | 0.05 | 0.00 | 96 | 1026.0 |
| 20260902221909 | 12 | 330 | 1.6 | 4.8 | 0.00 | 0.05 | 0.00 | 95 | 1026.0 |
| 20260902221902 | 12 | 32 | 3.2 | 12.9 | 0.00 | 0.05 | 0.00 | 95 | 1025.9 |
| 20260902220913 | 12 | 174 | 4.8 | 12.9 | 0.00 | 0.05 | 0.00 | 95 | 1025.8 |
| 20260902220142 | 12 | 157 | 3.2 | 11.3 | 0.00 | 0.05 | 0.00 | 96 | 1025.8 |
| 20260902215910 | 12 | 162 | 1.6 | 6.4 | 0.00 | 0.05 | 0.05 | 96 | 1025.8 |
| 20260902215141 | 12 | 315 | 0.0 | 4.8 | 0.00 | 0.05 | 0.05 | 96 | 1025.8 |
| 20260902214911 | 12 | 315 | 1.6 | 11.3 | 0.00 | 0.05 | 0.05 | 96 | 1025.9 |
| 20260902214407 | 12 | 202 | 3.2 | 11.3 | 0.00 | 0.05 | 0.05 | 96 | 1025.8 |
| 20260902213637 | 12 | 160 | 3.2 | 8.0 | 0.00 | 0.05 | 0.05 | 96 | 1025.8 |
| 20260902213137 | 12 | 183 | 1.6 | 8.0 | 0.00 | 0.05 | 0.05 | 96 | 1025.9 |
| 20260902212901 | 12 | 159 | 1.6 | 6.4 | 0.00 | 0.05 | 0.05 | 96 | 1025.9 |
| 20260902212358 | 12 | 177 | 1.6 | 8.0 | 0.00 | 0.05 | 0.05 | 96 | 1025.9 |
| 20260902211631 | 12 | 165 | 3.2 | 8.0 | 0.00 | 0.05 | 0.05 | 97 | 1025.9 |
| 20260902211132 | 12 | 134 | 1.6 | 8.0 | 0.00 | 0.05 | 0.05 | 97 | 1025.9 |
| 20260902210632 | 12 | 179 | 0.0 | 4.8 | 0.03 | 0.05 | 0.05 | 97 | 1025.8 |
| 20260902210130 | 12 | 201 | 0.0 | 0.0 | 0.03 | 0.05 | 0.05 | 97 | 1025.9 |
| 20260902205630 | 12 | 201 | 0.0 | 0.0 | 0.05 | 0.05 | 0.05 | 97 | 1026.0 |
| 20260902205131 | 12 | 201 | 0.0 | 0.0 | 0.05 | 0.05 | 0.05 | 96 | 1025.9 |
| 20260902204631 | 12 | 201 | 0.0 | 0.0 | 0.05 | 0.05 | 0.05 | 96 | 1025.9 |
| 20260902204123 | 12 | 201 | 0.0 | 0.0 | 0.05 | 0.05 | 0.05 | 96 | 1025.9 |
| 20260902203618 | 12 | 201 | 0.0 | 0.0 | 0.05 | 0.05 | 0.05 | 95 | 1025.8 |
| 20260902203110 | 12 | 201 | 0.0 | 0.0 | 0.05 | 0.05 | 0.05 | 95 | 1025.8 |
| 20260902202610 | 13 | 201 | 0.0 | 4.8 | 0.05 | 0.05 | 0.05 | 94 | 1025.6 |
| 20260902202109 | 13 | 128 | 1.6 | 4.8 | 0.05 | 0.05 | 0.05 | 94 | 1025.7 |
| 20260902201607 | 13 | 119 | 4.8 | 16.1 | 0.05 | 0.05 | 0.05 | 94 | 1025.6 |
| 20260902201106 | 13 | 113 | 6.4 | 16.1 | 0.05 | 0.05 | 0.05 | 94 | 1025.7 |
| 20260902200830 | 13 | 163 | 4.8 | 14.5 | 0.05 | 0.05 | 0.05 | 94 | 1025.7 |
| 20260902195602 | 13 | 154 | 0.0 | 0.0 | 0.00 | 0.00 | 0.00 | 93 | 1026.2 |
| 20260902195326 | 13 | 154 | 0.0 | 0.0 | 0.00 | 0.00 | 0.00 | 93 | 1026.0 |
| 20260902194601 | 13 | 154 | 0.0 | 0.0 | 0.00 | 0.00 | 0.00 | 93 | 1025.8 |
| 20260902194102 | 13 | 154 | 0.0 | 0.0 | 0.00 | 0.00 | 0.00 | 92 | 1025.6 |
| 20260902193602 | 13 | 154 | 0.0 | 0.0 | 0.00 | 0.00 | 0.00 | 92 | 1025.4 |
| 20260902193102 | 13 | 154 | 0.0 | 0.0 | 0.00 | 0.00 | 0.00 | 91 | 1025.3 |
| 20260902192602 | 13 | 154 | 0.0 | 0.0 | 0.00 | 0.00 | 0.00 | 91 | 1025.4 |
| 20260902192100 | 13 | 154 | 0.0 | 0.0 | 0.00 | 0.00 | 0.00 | 91 | 1025.3 |
| 20260902191601 | 13 | 154 | 0.0 | 0.0 | 0.00 | 0.00 | 0.00 | 91 | 1025.3 |
| 20260902191101 | 13 | 154 | 0.0 | 0.0 | 0.00 | 0.00 | 0.00 | 90 | 1025.3 |
| 20260902190559 | 13 | 154 | 0.0 | 0.0 | 0.00 | 0.00 | 0.00 | 90 | 1025.1 |
| 20260902190107 | 13 | 154 | 0.0 | 0.0 | 0.00 | 0.00 | 0.00 | 91 | 1025.1 |
| 20260902185557 | 13 | 154 | 0.0 | 0.0 | 0.00 | 0.00 | 0.00 | 91 | 1025.0 |
| 20260902185050 | 13 | 154 | 0.0 | 0.0 | 0.00 | 0.00 | 0.00 | 91 | 1024.9 |
| 20260902184545 | 13 | 154 | 0.0 | 0.0 | 0.00 | 0.00 | 0.00 | 89 | 1024.7 |
| 20260902184038 | 13 | 154 | 0.0 | 0.0 | 0.00 | 0.00 | 0.00 | 90 | 1024.7 |
| 20260902183529 | 13 | 154 | 0.0 | 0.0 | 0.00 | 0.00 | 0.00 | 91 | 1024.5 |
| 20260902183251 | 13 | 154 | 0.0 | 0.0 | 0.00 | 0.00 | 0.00 | 89 | 1024.4 |
| 20260902182519 | 13 | 154 | 0.0 | 0.0 | 0.00 | 0.00 | 0.00 | 89 | 1024.4 |
| 20260902182017 | 13 | 154 | 0.0 | 0.0 | 0.00 | 0.00 | 0.00 | 90 | 1024.2 |
| 20260902181517 | 13 | 154 | 0.0 | 0.0 | 0.00 | 0.00 | 0.00 | 90 | 1024.2 |
| 20260902181015 | 13 | 154 | 0.0 | 0.0 | 0.00 | 0.00 | 0.00 | 90 | 1024.2 |
| 20260902180516 | 13 | 154 | 0.0 | 0.0 | 0.00 | 0.00 | 0.00 | 89 | 1024.1 |
| 20260902180015 | 13 | 154 | 0.0 | 3.2 | 0.00 | 0.00 | 0.00 | 88 | 1024.1 |
| 20260902175513 | 14 | 154 | 1.6 | 3.2 | 0.00 | 0.00 | 0.00 | 87 | 1024.0 |
| 20260902175012 | 14 | 154 | 0.0 | 3.2 | 0.00 | 0.00 | 0.00 | 87 | 1024.0 |
| 20260902174513 | 14 | 154 | 0.0 | 3.2 | 0.00 | 0.00 | 0.00 | 87 | 1023.9 |
| 20260902174013 | 14 | 154 | 0.0 | 1.6 | 0.00 | 0.00 | 0.00 | 87 | 1023.7 |
| 20260902173738 | 14 | 154 | 0.0 | 3.2 | 0.00 | 0.00 | 0.00 | 87 | 1023.7 |
| 20260902173013 | 14 | 154 | 0.0 | 3.2 | 0.00 | 0.00 | 0.00 | 88 | 1023.7 |
| 20260902172513 | 14 | 154 | 0.0 | 3.2 | 0.00 | 0.00 | 0.00 | 89 | 1023.7 |
| 20260902172243 | 14 | 154 | 0.0 | 4.8 | 0.00 | 0.00 | 0.00 | 88 | 1023.6 |
| 20260902171512 | 14 | 154 | 0.0 | 4.8 | 0.00 | 0.00 | 0.00 | 87 | 1023.5 |
| 20260902171013 | 14 | 154 | 0.0 | 1.6 | 0.00 | 0.00 | 0.00 | 88 | 1023.5 |
| 20260902170524 | 14 | 154 | 0.0 | 3.2 | 0.00 | 0.00 | 0.00 | 88 | 1023.3 |
| 20260902170518 | 14 | 154 | 0.0 | 1.6 | 0.00 | 0.00 | 0.00 | 88 | 1023.3 |
| 20260902165514 | 15 | 154 | 0.0 | 3.2 | 0.00 | 0.00 | 0.00 | 87 | 1023.3 |
| 20260902165014 | 15 | 154 | 0.0 | 1.6 | 0.00 | 0.00 | 0.00 | 87 | 1023.3 |
| 20260902164515 | 15 | 154 | 0.0 | 0.0 | 0.00 | 0.00 | 0.00 | 88 | 1023.3 |
| 20260902164014 | 15 | 154 | 0.0 | 3.2 | 0.00 | 0.00 | 0.00 | 87 | 1023.3 |
| 20260902163512 | 15 | 154 | 0.0 | 3.2 | 0.00 | 0.00 | 0.00 | 86 | 1023.3 |
| 20260902163011 | 15 | 154 | 0.0 | 1.6 | 0.00 | 0.00 | 0.00 | 86 | 1023.3 |
| 20260902162510 | 15 | 154 | 0.0 | 3.2 | 0.00 | 0.00 | 0.00 | 85 | 1023.3 |
| 20260902162011 | 15 | 154 | 0.0 | 3.2 | 0.00 | 0.00 | 0.00 | 85 | 1023.2 |
| 20260902161510 | 15 | 154 | 0.0 | 8.0 | 0.00 | 0.00 | 0.00 | 86 | 1023.3 |
| 20260902161009 | 15 | 154 | 1.6 | 8.0 | 0.00 | 0.00 | 0.00 | 85 | 1023.3 |
| 20260902160507 | 16 | 154 | 1.6 | 8.0 | 0.00 | 0.00 | 0.00 | 83 | 1023.2 |
| 20260902160007 | 16 | 154 | 0.0 | 8.0 | 0.00 | 0.00 | 0.00 | 82 | 1023.2 |
| 20260902155502 | 16 | 154 | 0.0 | 1.6 | 0.00 | 0.00 | 0.00 | 84 | 1023.2 |
| 20260902155003 | 16 | 154 | 0.0 | 1.6 | 0.00 | 0.00 | 0.00 | 85 | 1023.3 |
| 20260902154732 | 16 | 154 | 0.0 | 1.6 | 0.00 | 0.00 | 0.00 | 83 | 1023.3 |
| 20260902154002 | 16 | 154 | 0.0 | 3.2 | 0.00 | 0.00 | 0.00 | 82 | 1023.3 |
| 20260902153503 | 16 | 154 | 0.0 | 3.2 | 0.00 | 0.00 | 0.00 | 81 | 1023.3 |
| 20260902153001 | 16 | 154 | 1.6 | 4.8 | 0.00 | 0.00 | 0.00 | 79 | 1023.3 |
| 20260902152458 | 16 | 154 | 1.6 | 4.8 | 0.00 | 0.00 | 0.00 | 79 | 1023.3 |
| 20260902152445 | 17 | 99 | 1.6 | 4.8 | 0.00 | 0.00 | 0.00 | 78 | 1023.2 |
| 20260902151457 | 17 | 236 | 1.6 | 4.8 | 0.00 | 0.00 | 0.00 | 71 | 1023.3 |
| 20260902150956 | 17 | 178 | 0.0 | 4.8 | 0.00 | 0.00 | 0.00 | 77 | 1023.3 |
| 20260902150454 | 17 | 0 | 1.6 | 8.0 | 0.00 | 0.00 | 0.00 | 78 | 1023.3 |
| 20260902145953 | 17 | 286 | 4.8 | 11.3 | 0.00 | 0.00 | 0.00 | 74 | 1023.3 |
| 20260902145452 | 18 | 165 | 4.8 | 12.9 | 0.00 | 0.00 | 0.00 | 70 | 1023.2 |
| 20260902144952 | 18 | 275 | 4.8 | 12.9 | 0.00 | 0.00 | 0.00 | 66 | 1023.3 |
| 20260902144452 | 18 | 223 | 4.8 | 8.0 | 0.00 | 0.00 | 0.00 | 70 | 1023.3 |
| 20260902143950 | 18 | 195 | 3.2 | 8.0 | 0.00 | 0.00 | 0.00 | 69 | 1023.3 |
| 20260902143450 | 18 | 242 | 3.2 | 14.5 | 0.00 | 0.00 | 0.00 | 73 | 1023.3 |
| 20260902142950 | 18 | 66 | 3.2 | 14.5 | 0.00 | 0.00 | 0.00 | 72 | 1023.3 |
| 20260902142451 | 18 | 202 | 1.6 | 8.0 | 0.00 | 0.00 | 0.00 | 74 | 1023.3 |
| 20260902141950 | 18 | 234 | 0.0 | 4.8 | 0.00 | 0.00 | 0.00 | 74 | 1023.5 |
| 20260902141448 | 18 | 246 | 0.0 | 4.8 | 0.00 | 0.00 | 0.00 | 74 | 1023.5 |
| 20260902141211 | 18 | 231 | 1.6 | 4.8 | 0.00 | 0.00 | 0.00 | 72 | 1023.5 |
| 20260902140445 | 18 | 231 | 1.6 | 4.8 | 0.00 | 0.00 | 0.00 | 70 | 1023.5 |
| 20260902135943 | 18 | 231 | 1.6 | 4.8 | 0.00 | 0.00 | 0.00 | 72 | 1023.5 |
| 20260902135935 | 18 | 209 | 1.6 | 6.4 | 0.00 | 0.00 | 0.00 | 70 | 1023.3 |
| 20260902134942 | 18 | 209 | 1.6 | 6.4 | 0.00 | 0.00 | 0.00 | 71 | 1023.3 |
| 20260902134437 | 18 | 219 | 3.2 | 8.0 | 0.00 | 0.00 | 0.00 | 65 | 1023.3 |
| 20260902133937 | 19 | 215 | 4.8 | 12.9 | 0.00 | 0.00 | 0.00 | 64 | 1023.3 |
| 20260902133436 | 19 | 227 | 6.4 | 14.5 | 0.00 | 0.00 | 0.00 | 62 | 1023.3 |
| 20260902133208 | 20 | 287 | 8.0 | 17.7 | 0.00 | 0.00 | 0.00 | 60 | 1023.3 |
| 20260902132436 | 20 | 321 | 8.0 | 17.7 | 0.00 | 0.00 | 0.00 | 58 | 1023.3 |
| 20260902131936 | 20 | 257 | 8.0 | 14.5 | 0.00 | 0.00 | 0.00 | 57 | 1023.3 |
| 20260902131706 | 21 | 254 | 8.0 | 16.1 | 0.00 | 0.00 | 0.00 | 55 | 1023.5 |
| 20260902131208 | 20 | 255 | 8.0 | 16.1 | 0.00 | 0.00 | 0.00 | 55 | 1023.5 |
| 20260902130436 | 20 | 273 | 8.0 | 16.1 | 0.00 | 0.00 | 0.00 | 58 | 1023.5 |
| 20260902130204 | 20 | 309 | 6.4 | 19.3 | 0.00 | 0.00 | 0.00 | 58 | 1023.5 |
| 20260902125439 | 20 | 295 | 4.8 | 19.3 | 0.00 | 0.00 | 0.00 | 59 | 1023.3 |
| 20260902124936 | 20 | 302 | 1.6 | 4.8 | 0.00 | 0.00 | 0.00 | 67 | 1023.6 |
| 20260902124436 | 20 | 302 | 1.6 | 4.8 | 0.00 | 0.00 | 0.00 | 61 | 1023.6 |
| 20260902124209 | 20 | 302 | 0.0 | 4.8 | 0.00 | 0.00 | 0.00 | 63 | 1023.6 |
| 20260902123705 | 19 | 302 | 0.0 | 4.8 | 0.00 | 0.00 | 0.00 | 77 | 1023.7 |
| 20260902123203 | 18 | 302 | 0.0 | 0.0 | 0.00 | 0.00 | 0.00 | 81 | 1023.8 |
| 20260902122705 | 18 | 302 | 0.0 | 0.0 | 0.00 | 0.00 | 0.00 | 83 | 1023.8 |
| 20260902121934 | 18 | 302 | 0.0 | 0.0 | 0.00 | 0.00 | 0.00 | 82 | 1023.8 |
| 20260902121921 | 18 | 302 | 1.6 | 3.2 | 0.00 | 0.00 | 0.00 | 82 | 1023.8 |
| 20260902120934 | 18 | 302 | 1.6 | 4.8 | 0.00 | 0.00 | 0.00 | 79 | 1023.8 |
| 20260902120434 | 17 | 302 | 1.6 | 4.8 | 0.00 | 0.00 | 0.00 | 79 | 1023.9 |
| 20260902115934 | 17 | 302 | 0.0 | 3.2 | 0.00 | 0.00 | 0.00 | 82 | 1023.9 |
| 20260902115434 | 17 | 302 | 0.0 | 3.2 | 0.00 | 0.00 | 0.00 | 83 | 1023.9 |
| 20260902114934 | 17 | 302 | 0.0 | 3.2 | 0.00 | 0.00 | 0.00 | 84 | 1024.0 |
| 20260902114439 | 17 | 302 | 0.0 | 3.2 | 0.00 | 0.00 | 0.00 | 81 | 1024.0 |
| 20260902113939 | 17 | 302 | 1.6 | 3.2 | 0.00 | 0.00 | 0.00 | 81 | 1024.0 |
| 20260902113437 | 17 | 302 | 0.0 | 3.2 | 0.00 | 0.00 | 0.00 | 79 | 1024.1 |
| 20260902113200 | 17 | 302 | 0.0 | 1.6 | 0.00 | 0.00 | 0.00 | 83 | 1024.2 |
| 20260902112705 | 17 | 302 | 0.0 | 1.6 | 0.00 | 0.00 | 0.00 | 81 | 1024.2 |
| 20260902111933 | 17 | 302 | 0.0 | 4.8 | 0.00 | 0.00 | 0.00 | 81 | 1024.2 |
| 20260902111432 | 17 | 302 | 0.0 | 4.8 | 0.00 | 0.00 | 0.00 | 81 | 1024.4 |
| 20260902110932 | 17 | 302 | 0.0 | 3.2 | 0.00 | 0.00 | 0.00 | 79 | 1024.2 |
| 20260902110432 | 17 | 302 | 1.6 | 3.2 | 0.00 | 0.00 | 0.00 | 78 | 1024.2 |
| 20260902105932 | 17 | 302 | 1.6 | 4.8 | 0.00 | 0.00 | 0.00 | 75 | 1024.2 |
| 20260902105432 | 18 | 302 | 3.2 | 6.4 | 0.00 | 0.00 | 0.00 | 72 | 1024.4 |
| 20260902104931 | 19 | 302 | 3.2 | 6.4 | 0.00 | 0.00 | 0.00 | 66 | 1024.4 |
| 20260902104432 | 19 | 286 | 3.2 | 6.4 | 0.00 | 0.00 | 0.00 | 68 | 1024.5 |
| 20260902103931 | 20 | 248 | 3.2 | 8.0 | 0.00 | 0.00 | 0.00 | 61 | 1024.4 |
| 20260902103429 | 20 | 310 | 3.2 | 8.0 | 0.00 | 0.00 | 0.00 | 63 | 1024.6 |
| 20260902103203 | 20 | 285 | 4.8 | 11.3 | 0.00 | 0.00 | 0.00 | 62 | 1024.5 |
| 20260902102429 | 20 | 295 | 4.8 | 12.9 | 0.00 | 0.00 | 0.00 | 62 | 1024.6 |
| 20260902101929 | 20 | 325 | 3.2 | 12.9 | 0.00 | 0.00 | 0.00 | 58 | 1024.7 |
| 20260902101429 | 20 | 318 | 3.2 | 11.3 | 0.00 | 0.00 | 0.00 | 65 | 1024.7 |
| 20260902100929 | 20 | 279 | 4.8 | 14.5 | 0.00 | 0.00 | 0.00 | 62 | 1024.7 |
| 20260902100429 | 20 | 292 | 6.4 | 16.1 | 0.00 | 0.00 | 0.00 | 62 | 1024.7 |
| 20260902100205 | 20 | 305 | 8.0 | 16.1 | 0.00 | 0.00 | 0.00 | 67 | 1024.7 |
| 20260902095429 | 20 | 311 | 8.0 | 16.1 | 0.00 | 0.00 | 0.00 | 66 | 1024.8 |
| 20260902095155 | 20 | 313 | 6.4 | 16.1 | 0.00 | 0.00 | 0.00 | 68 | 1024.8 |
| 20260902094429 | 20 | 327 | 6.4 | 16.1 | 0.00 | 0.00 | 0.00 | 64 | 1024.7 |
| 20260902093929 | 19 | 288 | 8.0 | 17.7 | 0.00 | 0.00 | 0.00 | 67 | 1024.8 |
| 20260902093432 | 19 | 320 | 6.4 | 17.7 | 0.00 | 0.00 | 0.00 | 70 | 1024.9 |
| 20260902092930 | 19 | 323 | 6.4 | 17.7 | 0.00 | 0.00 | 0.00 | 70 | 1024.9 |
| 20260902092653 | 19 | 313 | 8.0 | 19.3 | 0.00 | 0.00 | 0.00 | 69 | 1024.9 |
| 20260902091931 | 18 | 321 | 11.3 | 19.3 | 0.00 | 0.00 | 0.00 | 70 | 1024.8 |
| 20260902091430 | 18 | 323 | 11.3 | 16.1 | 0.00 | 0.00 | 0.00 | 72 | 1024.9 |
| 20260902090930 | 18 | 320 | 8.0 | 16.1 | 0.00 | 0.00 | 0.00 | 72 | 1024.8 |
| 20260902090432 | 18 | 290 | 8.0 | 14.5 | 0.00 | 0.00 | 0.00 | 73 | 1024.8 |